Location: Asheville, NC
(35.6000°N, 82.5500°W)
Time: 11:47:20
(UTC-04:00)

SEEDS - Pass Details

Date: 07 January 2018
Orbit: 587 x 605 km, 97.5° (Epoch: 22 June)

Event Time Altitude Azimuth Distance (km) Brightness Sun altitude
Rises 19:38:45 0° 188° (S) 2,843 ? -24.9°
Reaches altitude 10° 19:41:05 10° 198° (SSW) 1,944 ? -25.4°
Maximum altitude 19:44:54 33° 263° (W) 1,021 ? -26.2°
Drops below altitude 10° 19:48:45 10° 328° (NNW) 1,954 ? -27.0°
Sets 19:51:06 0° 338° (NNW) 2,860 ? -27.4°
